www.pogodaiklimat.ru

Погода и климат >> Архив погоды >> Австралия >> Западная Австралия >> Шарк-Бэй


ПОГОДА в Шарк-Бэе

  • Прогноз погоды в Шарк-Бэе
  • Монитор погоды в Шарк-Бэе

АРХИВ ПОГОДЫ в Шарк-Бэе

Время (UTC), дата Ветер
(напр.,м/с)
 
Видим.   Явления Облачность Т
(С)
Тd
(С)
f
(%)
Тe
(С)
Тes
(С)
Комфортность P
(гПа)
Po
(гПа)
Тmin
(С)
Tmax
(С)
R
(мм)
R24
(мм)
S
(см)
16 16.01 Ю 9 н/о н/о +20.0 +15.6 76 +22 +22 комфорт 1009.3 1005.4
18 16.01 ЮВ 6 н/о н/о +19.1 +15.2 78 +20 +20 1009.4 1005.5
19 16.01 Ю 6 н/о н/о +18.9 +15.2 79 +20 +20 1009.1 1005.2
21 16.01 Ю 6 н/о н/о +18.3 +15.2 82 +18 +18 1009.8 1005.9
22 16.01 Ю 5 н/о н/о +17.9 +14.8 82 +17 +17 1010.6 1006.7
00 17.01 Ю 9 н/о н/о +21.5 +13.7 61 +24 +24 комфорт 1011.3 1007.4
01 17.01 Ю 9 н/о н/о +23.3 +13.2 53 +26 +26 жарко 1011.5 1007.6 +18.0
03 17.01 Ю 8 н/о н/о +28.0 +14.3 43 +30 +30 жарко 1011.5 1007.6
04 17.01 Ю 8 н/о н/о +29.3 +14.7 41 +32 +32 душно 1010.9 1007.0
06 17.01 Ю 10 н/о н/о +29.3 +16.1 45 +32 +32 душно 1009.7 1005.8
07 17.01 Ю 10 н/о н/о +28.8 +16.0 46 +32 +32 душно 1009.0 1005.1
09 17.01 Ю 10 н/о н/о +27.0 +16.3 52 +30 +30 душно 1008.4 1004.5
10 17.01 Ю 9 н/о н/о +25.3 +17.0 60 +29 +29 душно 1008.8 1004.9
12 17.01 Ю 10 н/о н/о +21.7 +16.6 73 +26 +26 душно 1009.6 1005.7
13 17.01 Ю 8 н/о н/о +21.0 +16.6 76 +24 +24 комфорт 1010.3 1006.4 +30.4
15 17.01 Ю 8 н/о н/о +20.6 +17.2 81 +24 +24 комфорт 1010.7 1006.8
16 17.01 Ю 7 н/о н/о +20.1 +16.9 82 +23 +23 комфорт 1010.7 1006.8
18 17.01 Ю 7 н/о н/о +19.6 +15.9 79 +21 +21 комфорт 1010.3 1006.4
19 17.01 Ю 7 н/о н/о +19.3 +15.0 76 +20 +20 1010.2 1006.3
21 17.01 Ю 6 н/о н/о +18.7 +14.8 78 +19 +19 1010.6 1006.7
22 17.01 ЮВ 5 н/о н/о +18.6 +14.7 78 +19 +19 1011.2 1007.3
00 18.01 Ю 7 н/о н/о +23.2 +13.7 55 +27 +27 душно 1011.8 1007.9
01 18.01 ЮВ 6 н/о н/о +26.3 +12.0 41 +28 +28 жарко 1011.6 1007.7 +18.6
03 18.01 ЮВ 6 н/о н/о +32.0 +10.7 27 +32 +32 жарко 1010.9 1007.0
04 18.01 Ю 5 н/о н/о +32.6 +13.3 31 +34 +34 очень
жарко
1010.3 1006.4
06 18.01 ЮЗ 8 н/о н/о +34.0 +12.9 28 +34 +34 очень
жарко
1009.1 1005.2
07 18.01 ЮЗ 9 н/о н/о +33.7 +14.2 31 +35 +35 очень
жарко
1008.7 1004.8
09 18.01 Ю 9 н/о н/о +30.3 +15.6 41 +33 +33 душно 1008.2 1004.3
10 18.01 Ю 10 н/о н/о +28.2 +15.8 47 +31 +31 душно 1008.3 1004.4
12 18.01 Ю 8 н/о н/о +23.9 +18.1 70 +28 +28 душно 1009.1 1005.2
13 18.01 Ю 9 н/о н/о +23.6 +16.6 65 +27 +27 жарко 1009.4 1005.5 +36.3
15 18.01 Ю 7 н/о н/о +23.3 +16.6 66 +28 +28 душно 1009.7 1005.8
16 18.01 Ю 7 н/о н/о +22.8 +17.3 71 +28 +28 душно 1009.2 1005.3
18 18.01 Ю 5 н/о н/о +21.6 +17.8 79 +26 +26 душно 1008.7 1004.8
19 18.01 Ю 4 н/о н/о +21.3 +17.9 81 +25 +25 комфорт 1008.2 1004.3
21 18.01 ЮВ 4 н/о н/о +21.4 +17.2 77 +25 +25 комфорт 1008.4 1004.5
22 18.01 ЮВ 4 н/о н/о +21.6 +14.7 65 +25 +25 комфорт 1008.7 1004.8
00 19.01 ЮВ 7 н/о н/о +31.0 +9.8 27 +31 +31 жарко 1009.5 1005.6
01 19.01 В 7 н/о н/о +35.1 +8.8 20 +34 +34 очень
жарко
1009.6 1005.7 +21.1
03 19.01 В 6 н/о н/о +41.0 +9.2 15 +39 +39 очень
жарко
1008.9 1005.0
04 19.01 В 5 н/о н/о +42.6 +8.4 13 +41 +41 опасность
перегрева
1008.4 1004.5
06 19.01 В 5 н/о н/о +44.6 +6.1 10 +42 +42 опасность
перегрева
1007.0 1003.1
07 19.01 ЮЗ 7 н/о н/о +42.7 +7.3 12 +40 +40 очень
жарко
1006.4 1002.5
09 19.01 Ю 8 н/о н/о +39.3 +10.6 18 +38 +38 очень
жарко
1006.3 1002.4
10 19.01 Ю 9 н/о н/о +36.5 +12.0 23 +36 +36 очень
жарко
1006.7 1002.8
12 19.01 Ю 7 н/о н/о +29.2 +15.3 43 +32 +32 душно 1008.0 1004.1
13 19.01 Ю 7 н/о н/о +27.2 +15.9 50 +30 +30 душно 1008.4 1004.5 +45.0
15 19.01 Ю 8 н/о н/о +26.6 +16.2 53 +30 +30 душно 1008.5 1004.6
16 19.01 Ю 9 н/о н/о +27.3 +14.7 46 +30 +30 душно 1008.1 1004.2
18 19.01 Ю 7 н/о н/о +26.3 +14.7 49 +29 +29 жарко 1007.3 1003.4
19 19.01 Ю 7 н/о н/о +25.1 +16.5 59 +29 +29 душно 1007.1 1003.2
21 19.01 Ю 4 н/о н/о +24.2 +17.2 65 +28 +28 душно 1007.1 1003.2
22 19.01 Ю 4 н/о н/о +24.0 +17.0 65 +28 +28 душно 1007.4 1003.5
00 20.01 ЮВ 4 н/о н/о +34.4 +10.3 23 +34 +34 очень
жарко
1008.0 1004.1
01 20.01 В 6 н/о н/о +38.5 +8.2 16 +36 +36 очень
жарко
1008.0 1004.1 +24.0
03 20.01 В 5 н/о н/о +44.3 +9.7 13 +43 +43 опасность
перегрева
1007.6 1003.7
04 20.01 В 4 н/о н/о +46.1 +9.9 12 +45 +45 опасность
перегрева
1006.9 1003.0
06 20.01 З 7 н/о н/о +41.5 +11.5 17 +41 +41 опасность
перегрева
1006.1 1002.2
07 20.01 З 6 н/о н/о +40.2 +17.6 27 +43 +43 опасность
перегрева
1005.6 1001.7
09 20.01 ЮЗ 8 н/о н/о +33.6 +18.5 41 +38 +38 очень
душно
1005.3 1001.4
10 20.01 Ю 8 н/о н/о +32.4 +16.7 39 +36 +36 очень
душно
1005.3 1001.4
12 20.01 Ю 6 н/о н/о +28.2 +17.4 52 +32 +32 душно 1006.6 1002.7
13 20.01 Ю 7 н/о н/о +26.7 +18.8 62 +32 +32 очень
душно
1007.3 1003.4 +46.9
15 20.01 Ю 5 н/о н/о +25.5 +18.7 66 +30 +30 душно 1007.7 1003.8
16 20.01 Ю 7 н/о н/о +25.2 +19.1 69 +30 +30 душно 1007.5 1003.6
18 20.01 Ю 6 н/о н/о +24.8 +19.2 71 +30 +30 душно 1006.6 1002.7
19 20.01 Ю 7 н/о н/о +24.1 +19.2 74 +29 +29 душно 1006.3 1002.4
21 20.01 Ю 7 н/о н/о +23.8 +19.3 76 +29 +29 душно 1005.7 1001.8
22 20.01 Ю 8 н/о н/о +23.8 +19.1 75 +29 +29 душно 1006.2 1002.3
00 21.01 Ю 8 н/о н/о +29.3 +17.5 49 +33 +33 душно 1006.5 1002.6
01 21.01 Ю 7 н/о н/о +31.5 +17.4 43 +35 +35 очень
душно
1006.8 1002.9 +23.6
03 21.01 Ю 6 н/о н/о +35.6 +17.8 35 +39 +39 очень
душно
1006.6 1002.7
04 21.01 Ю 8 н/о н/о +34.5 +18.1 38 +39 +39 очень
душно
1006.2 1002.3
06 21.01 Ю 8 н/о н/о +36.4 +17.0 32 +39 +39 очень
душно
1005.0 1001.1
07 21.01 Ю 10 н/о н/о +34.2 +17.8 38 +38 +38 очень
душно
1004.5 1000.6
09 21.01 Ю 11 н/о н/о +29.0 +18.1 52 +34 +34 очень
душно
1004.4 1000.5
10 21.01 Ю 11 н/о н/о +27.5 +17.9 56 +32 +32 очень
душно
1004.7 1000.8
12 21.01 Ю 11 н/о н/о +23.6 +17.8 70 +28 +28 душно 1005.8 1001.9
13 21.01 Ю 10 н/о н/о +22.7 +18.5 77 +28 +28 душно 1006.2 1002.3 +37.2
15 21.01 Ю 9 н/о н/о +22.2 +18.0 77 +27 +27 душно 1007.0 1003.1
16 21.01 Ю 9 н/о н/о +21.9 +18.3 80 +27 +27 душно 1006.7 1002.8
18 21.01 Ю 9 н/о н/о +21.9 +18.1 79 +27 +27 душно 1006.1 1002.2
19 21.01 Ю 9 н/о н/о +21.7 +17.7 78 +26 +26 душно 1005.8 1001.9
21 21.01 Ю 9 н/о н/о +21.8 +17.8 78 +26 +26 душно 1005.8 1001.9
22 21.01 ЮЗ 9 н/о н/о +21.8 +18.0 79 +26 +26 душно 1006.5 1002.6
00 22.01 Ю 10 н/о н/о +23.0 +17.9 73 +28 +28 душно 1006.1 1002.2
01 22.01 Ю 9 н/о н/о +24.2 +17.9 68 +28 +28 душно 1006.8 1002.9 +21.6
03 22.01 ЮЗ 10 н/о н/о +24.9 +16.6 60 +28 +28 жарко 1007.3 1003.4
04 22.01 Ю 11 н/о н/о +26.8 +16.7 54 +30 +30 душно 1007.2 1003.3
06 22.01 Ю 10 н/о н/о +27.8 +16.1 49 +31 +31 душно 1006.9 1003.0
07 22.01 Ю 10 н/о н/о +27.6 +15.9 49 +31 +31 душно 1006.4 1002.5
09 22.01 Ю 10 н/о н/о +24.7 +15.9 58 +28 +28 душно 1006.3 1002.4
10 22.01 Ю 10 н/о н/о +23.9 +16.4 63 +27 +27 жарко 1006.6 1002.7
12 22.01 Ю 10 н/о н/о +22.3 +16.1 68 +26 +26 жарко 1007.7 1003.8
13 22.01 Ю 8 н/о н/о +21.9 +16.4 71 +26 +26 душно 1008.0 1004.1 +28.7
15 22.01 Ю 9 н/о н/о +20.9 +16.7 77 +24 +24 комфорт 1008.4 1004.5
16 22.01 Ю 7 н/о н/о +20.6 +16.2 76 +23 +23 комфорт 1008.7 1004.8
18 22.01 Ю 7 н/о н/о +20.6 +14.9 70 +23 +23 комфорт 1008.6 1004.7
19 22.01 Ю 6 н/о н/о +19.8 +14.8 73 +22 +22 комфорт 1008.4 1004.5
21 22.01 Ю 6 н/о н/о +19.2 +12.9 67 +20 +20 1009.1 1005.2
22 22.01 Ю 6 н/о н/о +19.4 +11.7 61 +20 +20 1009.3 1005.4
00 23.01 Ю 8 н/о н/о +22.0 +11.1 50 +24 +24 комфорт 1010.1 1006.2
01 23.01 Ю 9 н/о н/о +22.0 +9.9 46 +24 +24 комфорт 1010.8 1006.9 +19.1
03 23.01 Ю 9 н/о н/о +25.3 +10.0 38 +26 +26 жарко 1011.1 1007.2
04 23.01 Ю 9 н/о н/о +24.8 +9.5 38 +26 +26 жарко 1010.8 1006.9
06 23.01 Ю 9 н/о н/о +26.5 +8.5 32 +27 +27 жарко 1009.9 1006.0
07 23.01 Ю 10 н/о н/о +25.4 +8.0 33 +26 +26 жарко 1009.9 1006.0
09 23.01 Ю 10 н/о н/о +23.9 +9.1 39 +25 +25 комфорт 1009.1 1005.2
10 23.01 Ю 10 н/о н/о +22.7 +9.8 44 +24 +24 комфорт 1009.0 1005.1
12 23.01 Ю 9 н/о н/о +20.1 +12.6 62 +21 +21 комфорт 1010.1 1006.2
13 23.01 Ю 9 н/о н/о +19.7 +12.2 62 +20 +20 1010.8 1006.9 +27.5

 

Местоположение метеостанции Шарк-Бэй (Западная Австралия, Австралия): широта -25.90 долгота 113.58 высота над уровнем моря 34 м.

В архиве по умолчанию представлена погода в Шарк-Бэе за последнюю неделю. Архивные данные за месяц целиком и за предыдущие месяцы, начиная с января 2011 года, Вы можете получить, выбрав интересующий диапазон дат из раскрывающегося списка и нажав кнопку "Ввод!".


*Определитесь, кто Вы:
робот инопланетянин человек

Внимание! Время в таблицах - всемирное. Для получения местного времени необходимо прибавить поправку, которая равна 8 ч.

Смотрите также архив погоды в соседних городах и на ближайших метеорологических станциях:

Погода в Карнарвоне (Западная Австралия, Австралия) (114 км)
Погода в Джеральдтоне (Западная Австралия, Австралия) (341 км)
Погода в Лермонте (Западная Австралия, Австралия) (411 км)
Погода в Мораве (Западная Австралия, Австралия) (439 км)
Погода в Маунт Магнет (Западная Австралия, Австралия) (488 км)
Погода в Онслоу (Западная Австралия, Австралия) (496 км)
Погода в Микатарре (Западная Австралия, Австралия) (502 км)
Погода на Острове Тевенард (Западная Австралия, Австралия) (516 км)
Погода в Параберду (Западная Австралия, Австралия) (520 км)
Погода в Баджингарре (Западная Австралия, Австралия) (529 км)

Пояснения к столбцам:

Ветер - указаны скорость ветра в м/с - средняя за 10 мин, порывы в срок и между сроками (в фигурных скобках) и направление, откуда дует ветер: С - северный, СВ - северо-восточный, В - восточный, ЮВ - юго-восточный, Ю - южный, ЮЗ - юго-западный, З - западный, СЗ - северо-западный.
Видимость - горизонтальная дальность видимости в метрах или километрах. При видимости от 1 до 10 км при отсутствии осадков обычно наблюдается дымка, при ухудшении видимости до 1 км и менее - туман. В сухую погоду видимость может ухудшаться дымом, пылью или мглою.
Явления - указаны атмосферные явления, наблюдавшиеся в срок или в последний час перед сроком; фигурными скобками обозначены явления, наблюдавшиеся между сроками (за 1-3 часа до срока); квадратными скобками обозначены град или гололедные отложения с указанием их диаметра в мм.
Облачность - указаны через наклонную черту общая и нижняя облачность в баллах и высота нижней границы облаков в метрах; квадратными скобками обозначены формы облаков: Ci - перистые, Cs - перисто-слоистые, Cc - перисто-кучевые, Ac - высококучевые, As - высокослоистые, Sc - слоисто-кучевые, Ns - слоисто-дождевые, Cu - кучевые, Cb - кучево-дождевые. Подробнее классификацию облаков см. в Атласе облаков (PDF).
T - Температура воздуха - температура, измеренная на высоте 2 м над землей.
Td - Температура точки росы - температура, при понижении до которой содержащийся в воздухе водяной пар достигнет насыщения.
f - Относительная влажность воздуха - влажноcть воздуха, измеренная на высоте 2 м над землей.
Te - Эффективная температура - температура, которую ощущает одетый по сезону человек в тени. Характеристика душности погоды. При расчете учитывается влияние влажности воздуха и скорости ветра на теплоощущения человека.
Tes - Эффективная температура на солнце - температура, которую ощущает человек, с поправкой на солнечный нагрев. Характеристика знойности погоды. Зависит от высоты солнца над горизонтом, облачности и скорости ветра. Ночью, в пасмурную погоду, а также при ветре 12 м/с и более поправка равна нулю.
P - Атмосферное давление - приведенное к уровню моря атмосферное давление.
Po - Атмосферное давление - измеренное на уровне метеостанции атмосферное давление.
Tmin - Минимальная температура - минимум температуры воздуха на высоте 2 м над землей.
Tmax - Максимальная температура - максимум температуры воздуха на высоте 2 м над землей.
R - Количество осадков - Количество выпавших осадков за период времени, мм. При наведении курсора мыши на число - период времени, за который выпало указанное количество осадков.
R24 - Количество осадков - Количество выпавших осадков за 24 часа, мм.
S - Снежный покров - Высота снежного покрова, см. При наведении курсора мыши на число - состояние снежного покрова и степень покрытия местности в баллах.